TimeEST,TemperatureF,Dew PointF,Humidity,Sea Level PressureIn,VisibilityMPH,Wind Direction,Wind SpeedMPH,Gust SpeedMPH,PrecipitationIn,Events,Conditions,WindDirDegrees,DateUTC
12:15 AM,69.8,66.2,88,30.07,10.0,SSW,6.9,-,0.00,,Clear,200,2013-12-07 05:15:00
12:35 AM,69.8,66.2,88,30.06,10.0,SSW,6.9,-,0.00,,Clear,200,2013-12-07 05:35:00
12:55 AM,69.8,66.2,88,30.06,10.0,SSW,6.9,-,0.00,,Clear,200,2013-12-07 05:55:00
1:15 AM,69.8,66.2,88,30.06,10.0,SSW,9.2,-,0.00,,Clear,200,2013-12-07 06:15:00
1:35 AM,69.8,66.2,88,30.06,10.0,SSW,9.2,-,0.00,,Clear,210,2013-12-07 06:35:00
1:55 AM,69.8,66.2,88,30.07,10.0,SW,6.9,-,0.00,,Partly Cloudy,220,2013-12-07 06:55:00
2:15 AM,69.8,66.2,88,30.07,10.0,SSW,9.2,-,0.00,,Mostly Cloudy,200,2013-12-07 07:15:00
2:35 AM,69.8,66.2,88,30.07,10.0,SSW,9.2,-,0.00,,Mostly Cloudy,210,2013-12-07 07:35:00
2:55 AM,69.8,66.2,88,30.07,10.0,SW,9.2,-,0.00,,Scattered Clouds,220,2013-12-07 07:55:00
3:15 AM,69.8,66.2,88,30.08,10.0,SSW,8.1,-,0.00,,Scattered Clouds,210,2013-12-07 08:15:00
3:35 AM,69.8,66.2,88,30.08,10.0,SW,8.1,-,0.00,,Mostly Cloudy,220,2013-12-07 08:35:00
3:55 AM,69.8,66.2,88,30.08,10.0,SW,8.1,-,0.00,,Overcast,220,2013-12-07 08:55:00
4:15 AM,69.8,66.2,88,30.08,10.0,SSW,8.1,-,0.00,,Overcast,210,2013-12-07 09:15:00
4:35 AM,69.8,66.2,88,30.08,10.0,SSW,8.1,-,0.00,,Overcast,210,2013-12-07 09:35:00
4:55 AM,69.8,66.2,88,30.08,10.0,SSW,6.9,-,0.00,,Overcast,210,2013-12-07 09:55:00
5:15 AM,69.8,66.2,88,30.08,10.0,South,6.9,-,0.00,,Overcast,190,2013-12-07 10:15:00
5:35 AM,68.0,68.0,100,30.08,5.0,SSW,6.9,-,0.05,,Overcast,210,2013-12-07 10:35:00
5:55 AM,68.0,68.0,100,30.08,10.0,SSW,5.8,-,0.05,,Overcast,200,2013-12-07 10:55:00
6:15 AM,68.0,68.0,100,30.09,9.0,SSW,5.8,-,0.00,,Overcast,210,2013-12-07 11:15:00
6:35 AM,68.0,68.0,100,30.10,7.0,SW,3.5,-,0.00,,Overcast,220,2013-12-07 11:35:00
6:55 AM,68.0,68.0,100,30.12,8.0,SW,5.8,-,0.00,,Overcast,230,2013-12-07 11:55:00
7:15 AM,68.0,68.0,100,30.11,7.0,SW,3.5,-,0.00,Rain,Light Rain,220,2013-12-07 12:15:00
7:35 AM,68.0,68.0,100,30.13,7.0,SW,3.5,-,0.00,,Overcast,220,2013-12-07 12:35:00
7:55 AM,66.2,66.2,100,30.14,3.0,WSW,3.5,-,0.02,Rain,Light Rain,240,2013-12-07 12:55:00
8:15 AM,66.2,66.2,100,30.15,3.0,WSW,3.5,-,0.01,,Overcast,240,2013-12-07 13:15:00
8:35 AM,66.2,66.2,100,30.16,3.0,Calm,Calm,-,0.01,,Overcast,0,2013-12-07 13:35:00
8:55 AM,66.2,66.2,100,30.17,1.0,Calm,Calm,-,0.01,,Light Drizzle,0,2013-12-07 13:55:00
9:15 AM,66.2,66.2,100,30.19,0.8,Calm,Calm,-,0.00,,Overcast,0,2013-12-07 14:15:00
9:35 AM,66.2,66.2,100,30.20,0.5,Calm,Calm,-,0.01,Rain,Light Rain,0,2013-12-07 14:35:00
9:55 AM,66.2,66.2,100,30.21,0.8,Calm,Calm,-,0.02,,Light Drizzle,0,2013-12-07 14:55:00
10:15 AM,60.8,60.8,100,30.23,1.5,NNE,20.7,24.2,0.00,Rain,Rain,20,2013-12-07 15:15:00
10:35 AM,55.4,55.4,100,30.25,1.8,NE,18.4,21.9,0.03,Rain,Light Rain,40,2013-12-07 15:35:00
10:55 AM,53.6,53.6,100,30.26,2.0,NE,13.8,23.0,0.03,,Light Drizzle,40,2013-12-07 15:55:00
11:15 AM,53.6,53.6,100,30.27,1.0,NE,11.5,-,0.01,Rain,Light Rain,50,2013-12-07 16:15:00
11:35 AM,51.8,51.8,100,30.27,1.5,NE,12.7,18.4,0.01,Rain,Light Rain,40,2013-12-07 16:35:00
11:55 AM,51.8,51.8,100,30.26,2.5,NE,15.0,-,0.01,,Overcast,50,2013-12-07 16:55:00
12:15 PM,51.8,51.8,100,30.26,6.0,NE,12.7,-,0.00,,Overcast,50,2013-12-07 17:15:00
12:35 PM,51.8,51.8,100,30.26,8.0,NE,15.0,19.6,0.00,,Overcast,40,2013-12-07 17:35:00
12:55 PM,51.8,51.8,100,30.27,3.0,NE,10.4,-,0.00,,Light Drizzle,40,2013-12-07 17:55:00
1:15 PM,51.8,51.8,100,30.28,1.5,NE,8.1,18.4,0.00,,Overcast,50,2013-12-07 18:15:00
1:35 PM,50.0,50.0,100,30.27,3.0,NE,12.7,19.6,0.00,,Overcast,40,2013-12-07 18:35:00
1:55 PM,50.0,50.0,100,30.27,4.0,NE,12.7,-,0.00,,Overcast,50,2013-12-07 18:55:00
2:15 PM,50.0,48.2,94,30.27,6.0,NE,12.7,-,0.00,,Overcast,40,2013-12-07 19:15:00
2:35 PM,50.0,48.2,94,30.27,4.0,NE,10.4,18.4,0.03,,Overcast,40,2013-12-07 19:35:00
2:55 PM,48.2,48.2,100,30.28,5.0,NNE,8.1,-,0.03,Rain,Light Rain,30,2013-12-07 19:55:00
3:15 PM,48.2,48.2,100,30.27,10.0,NE,6.9,-,0.00,,Overcast,40,2013-12-07 20:15:00
3:35 PM,48.2,48.2,100,30.28,10.0,NE,9.2,-,0.00,,Overcast,40,2013-12-07 20:35:00
3:55 PM,48.2,48.2,100,30.29,10.0,ENE,8.1,-,0.00,,Overcast,60,2013-12-07 20:55:00
4:15 PM,48.2,46.4,93,30.29,10.0,NE,10.4,-,0.00,,Overcast,50,2013-12-07 21:15:00
4:35 PM,48.2,46.4,93,30.30,10.0,NE,8.1,-,0.00,,Overcast,50,2013-12-07 21:35:00
4:55 PM,48.2,46.4,93,30.31,10.0,NE,8.1,-,0.00,,Overcast,40,2013-12-07 21:55:00
5:15 PM,48.2,46.4,93,30.31,10.0,NE,8.1,-,0.00,,Overcast,50,2013-12-07 22:15:00
5:35 PM,48.2,44.6,87,30.32,9.0,NE,10.4,18.4,0.00,Rain,Light Rain,50,2013-12-07 22:35:00
5:55 PM,48.2,44.6,87,30.33,10.0,NE,10.4,-,0.00,,Overcast,50,2013-12-07 22:55:00
6:15 PM,48.2,46.4,93,30.34,10.0,NE,9.2,-,0.00,,Overcast,40,2013-12-07 23:15:00
6:35 PM,48.2,46.4,93,30.35,10.0,NE,9.2,-,0.00,,Overcast,40,2013-12-07 23:35:00
6:55 PM,48.2,46.4,93,30.35,10.0,NE,6.9,-,0.00,,Overcast,50,2013-12-07 23:55:00
7:15 PM,48.2,46.4,93,30.36,8.0,NE,8.1,-,0.00,,Overcast,50,2013-12-08 00:15:00
7:35 PM,48.2,46.4,93,30.37,5.0,NE,8.1,-,0.00,Rain,Light Rain,50,2013-12-08 00:35:00
7:55 PM,46.4,46.4,100,30.37,10.0,ENE,9.2,-,0.00,,Overcast,60,2013-12-08 00:55:00
8:15 PM,46.4,46.4,100,30.37,10.0,ENE,8.1,-,0.00,,Overcast,60,2013-12-08 01:15:00
8:35 PM,46.4,46.4,100,30.38,10.0,ENE,9.2,-,0.00,,Overcast,60,2013-12-08 01:35:00
8:55 PM,46.4,46.4,100,30.39,10.0,NE,8.1,-,0.00,,Overcast,50,2013-12-08 01:55:00
9:15 PM,46.4,44.6,93,30.39,10.0,ENE,8.1,-,0.00,,Overcast,70,2013-12-08 02:15:00
9:35 PM,46.4,44.6,93,30.39,10.0,ENE,8.1,-,0.00,,Overcast,60,2013-12-08 02:35:00
9:55 PM,46.4,44.6,93,30.39,10.0,ENE,8.1,-,0.00,,Overcast,60,2013-12-08 02:55:00
10:15 PM,46.4,44.6,93,30.40,10.0,ENE,6.9,-,0.00,,Overcast,70,2013-12-08 03:15:00
10:35 PM,46.4,44.6,93,30.40,10.0,NE,9.2,-,0.00,,Overcast,50,2013-12-08 03:35:00
10:55 PM,46.4,44.6,93,30.40,10.0,NE,8.1,-,0.00,Rain,Light Rain,50,2013-12-08 03:55:00
11:15 PM,46.4,44.6,93,30.40,3.0,ENE,8.1,-,0.00,,Light Drizzle,70,2013-12-08 04:15:00
11:35 PM,46.4,44.6,93,30.40,4.0,ENE,9.2,-,0.00,,Overcast,60,2013-12-08 04:35:00
11:55 PM,46.4,44.6,93,30.41,8.0,NE,8.1,-,0.00,,Overcast,50,2013-12-08 04:55:00